World > North America > United States > Florida
Hourly Weather in Spring Hill, FloridaSpring Hill, Florida Hourly Weather

Spring Hill, FL Hourly Weather

Hourly Weather Spring Hill, FloridaHourly Weather in Spring Hill, FL
Lat: 30.34N, Lon: 84.39W  ICAO: KBKV
Web Search

Pass this page to a friend. Tell them to point their camera at the QR Code near the bottom of this page.

Feedback

Spring Hill Hourly Weather

36 Hour Weather Scroll   °F Click to change Spring Hill hourly weather to Imperial units.Click to change Spring Hill hourly weather to Metric units. °C
Currently, Clear, temperature is 83°F28°C, dew point 54°F12°C, humidity 37%. Wind direction is N at 6 mph10 km/h with visibility of 10.00 mi16 km. Barometric pressure is 29.83 in1010 mb.

Oct 27
4:00 PM

Oct 27
5:00 PM

Oct 27
6:00 PM

Oct 27
7:00 PM

Oct 27
8:00 PM

Oct 27
9:00 PM

Oct 27
10:00 PM

Oct 27
11:00 PM

Oct 28
MIDNIGHT

Oct 28
1:00 AM

Oct 28
2:00 AM

Oct 28
3:00 AM

Oct 28
4:00 AM

Oct 28
5:00 AM

Oct 28
6:00 AM

Oct 28
7:00 AM

Oct 28
8:00 AM

Oct 28
9:00 AM

Oct 28
10:00 AM

Oct 28
11:00 AM

Oct 28
NOON

Oct 28
1:00 PM

Oct 28
2:00 PM

Oct 28
3:00 PM

Oct 28
4:00 PM

Oct 28
5:00 PM

Oct 28
6:00 PM

Oct 28
7:00 PM

Oct 28
8:00 PM

Oct 28
9:00 PM

Oct 28
10:00 PM

Oct 28
11:00 PM

Oct 29
MIDNIGHT

Oct 29
1:00 AM

Oct 29
2:00 AM

Oct 29
3:00 AM
Clear Clear Clear Clear Clear Clear Clear Clear Clear Mostly Cloudy Mostly Cloudy Mostly Cloudy Cloudy Cloudy Cloudy Cloudy Cloudy Cloudy Cloudy Cloudy Cloudy Cloudy Cloudy Cloudy Cloudy Cloudy Cloudy Cloudy Cloudy Cloudy Clear Clear Clear Mostly Cloudy Mostly Cloudy Mostly Cloudy
Clear Clear Clear Clear Clear Clear Clear Clear Clear Mostly Cloudy Mostly Cloudy Mostly Cloudy Cloudy Cloudy Cloudy Cloudy Cloudy Cloudy Cloudy Cloudy Cloudy Cloudy Cloudy Cloudy Cloudy Cloudy Cloudy Cloudy Cloudy Cloudy Clear Clear Clear Mostly Cloudy Mostly Cloudy Mostly Cloudy
81°F27°C 81°F27°C 77°F25°C 74°F23°C 70°F21°C 68°F20°C 67°F19°C 65°F18°C 65°F18°C 66°F19°C 66°F19°C 67°F19°C 68°F20°C 69°F21°C 70°F21°C 72°F22°C 73°F23°C 74°F23°C 76°F24°C 77°F25°C 77°F25°C 78°F26°C 78°F26°C 77°F25°C 75°F24°C 74°F23°C 73°F23°C 71°F22°C 70°F21°C 70°F21°C 71°F22°C 71°F22°C 71°F22°C 71°F22°C 71°F22°C 70°F21°C
- - - - - - - - - - - Rain Rain Rain Rain Rain Rain Rain Rain Rain Rain Rain Rain Rain Rain Rain Rain Rain Rain - - - - - - -
2% 2% 2% 2% 2% 0% 0% 0% 0% 0% 0% 28% 28% 28% 28% 28% 28% 66% 66% 66% 66% 66% 66% 68% 68% 68% 68% 68% 68% 7% 7% 7% 7% 7% 7% 13%
58°F14°C 58°F14°C 59°F15°C 60°F16°C 61°F16°C 61°F16°C 61°F16°C 61°F16°C 62°F17°C 63°F17°C 64°F18°C 66°F19°C 67°F19°C 69°F21°C 70°F21°C 71°F22°C 72°F22°C 73°F23°C 74°F23°C 75°F24°C 75°F24°C 74°F23°C 74°F23°C 74°F23°C 73°F23°C 73°F23°C 72°F22°C 71°F22°C 70°F21°C 69°F21°C 67°F19°C 66°F19°C 65°F18°C 65°F18°C 64°F18°C 63°F17°C
46% 46% 54% 62% 73% 78% 81% 87% 90% 90% 93% 97% 97% 100% 100% 97% 97% 97% 94% 94% 94% 88% 88% 91% 94% 97% 97% 100% 100% 97% 87% 84% 81% 81% 79% 79%
W W W SSW SSW S E N NE E SSE SSE SE SE SSE SSE SSE S S S SSE SW SW SSW SSW SSW SSW SSW SSW SSW SSW SSW SSW SW SW SSW
6 mph 6 mph 6 mph 1 mph 1 mph 1 mph 0 mph 0 mph 0 mph 2 mph 2 mph 2 mph 4 mph 4 mph 4 mph 7 mph 7 mph 7 mph 13 mph 13 mph 13 mph 14 mph 14 mph 14 mph 12 mph 12 mph 12 mph 14 mph 14 mph 14 mph 9 mph 9 mph 9 mph 15 mph 15 mph 15 mph
10 mi16 km 10 mi16 km 10 mi16 km 10 mi16 km 10 mi16 km 10 mi16 km 10 mi16 km 10 mi16 km 10 mi16 km 10 mi16 km 10 mi16 km 10 mi16 km 10 mi16 km 10 mi16 km 10 mi16 km 10 mi16 km 10 mi16 km 10 mi16 km 10 mi16 km 10 mi16 km 6 mi10 km 6 mi10 km 5 mi8 km 5 mi8 km 5 mi8 km 5 mi8 km 6 mi10 km 6 mi10 km 10 mi16 km 10 mi16 km 10 mi16 km 10 mi16 km 10 mi16 km 10 mi16 km 10 mi16 km 10 mi16 km
Hour (EDT)
Weather
Clouds
Temperature
Precip. Type
POP
Dewpoint
Humidity
Wind Direction
Wind Speed
Visibility
POP = Probability of Precipitation. ** Indicates missing data/values from model statistics.

24 Hour Forecast

Tonight - Partly cloudy this evening, then mostly cloudy with a chance of showers and thunderstorms after midnight. Showers likely with a chance of thunderstorms toward morning. Some thunderstorms May be severe. Lows in the mid 60s. Southeast winds 5 to 10 mph. Chance of rain 60%.
Thursday - Showers with a chance of thunderstorms. Windy. Some thunderstorms May be severe. Highs in the lower 80s. South winds 15 to 20 mph with gusts up to 30 mph. Chance of rain 90%.

48 Hour Forecast API Feed


Wed, Oct 27
4:00 pm

Wed, Oct 27
5:00 pm

Wed, Oct 27
6:00 pm

Wed, Oct 27
7:00 pm

Wed, Oct 27
8:00 pm

Wed, Oct 27
9:00 pm

Wed, Oct 27
10:00 pm

Wed, Oct 27
11:00 pm

Thu, Oct 28
Midnight

Thu, Oct 28
1:00 am

Thu, Oct 28
2:00 am

Thu, Oct 28
3:00 am

Thu, Oct 28
4:00 am

Thu, Oct 28
5:00 am

Thu, Oct 28
6:00 am

Thu, Oct 28
7:00 am

Thu, Oct 28
8:00 am

Thu, Oct 28
9:00 am

Thu, Oct 28
10:00 am

Thu, Oct 28
11:00 am

Thu, Oct 28
Noon

Thu, Oct 28
1:00 pm

Thu, Oct 28
2:00 pm

Thu, Oct 28
3:00 pm

Thu, Oct 28
4:00 pm

Thu, Oct 28
5:00 pm

Thu, Oct 28
6:00 pm

Thu, Oct 28
7:00 pm

Thu, Oct 28
8:00 pm

Thu, Oct 28
9:00 pm

Thu, Oct 28
10:00 pm

Thu, Oct 28
11:00 pm

Fri, Oct 29
Midnight

Fri, Oct 29
1:00 am

Fri, Oct 29
2:00 am

Fri, Oct 29
3:00 am

Fri, Oct 29
4:00 am

Fri, Oct 29
5:00 am

Fri, Oct 29
6:00 am

Fri, Oct 29
7:00 am

Fri, Oct 29
8:00 am

Fri, Oct 29
9:00 am

Fri, Oct 29
10:00 am

Fri, Oct 29
11:00 am

Fri, Oct 29
Noon

Fri, Oct 29
1:00 pm

Fri, Oct 29
2:00 pm

Fri, Oct 29
3:00 pm
Partly CloudyPartly CloudyPartly CloudyClearClearClearClearClearClearClearPartly CloudyCloudyPatchy Light DrizzleLight Rain ShowerLight Rain ShowerLight Rain ShowerModerate Or Heavy Rain ShowerModerate RainHeavy RainHeavy RainModerate Or Heavy Rain ShowerModerate Or Heavy Rain ShowerHeavy Rain At TimesPatchy Rain PossiblePatchy Rain PossiblePatchy Rain PossiblePatchy Rain PossiblePatchy Rain PossiblePatchy Rain PossiblePartly CloudyPartly CloudyClearCloudyPatchy Rain PossiblePatchy Rain PossibleCloudyOvercastCloudyOvercastPartly CloudyPatchy Rain PossibleCloudyOvercastPartly CloudyOvercastCloudyCloudyPartly Cloudy
Partly cloudy Partly cloudy Partly cloudy Clear Clear Clear Clear Clear Clear Clear Partly cloudy Cloudy Patchy light drizzle Light rain showers Light rain showers Light rain showers Moderate rain showers Moderate rain Heavy rain Heavy rain Moderate rain showers Moderate rain showers Heavy rain at times Patchy rain possible Patchy rain possible Patchy rain possible Patchy rain possible Patchy rain possible Patchy rain possible Partly cloudy Partly cloudy Clear Cloudy Patchy rain possible Patchy rain possible Cloudy Overcast Cloudy Overcast Partly cloudy Patchy rain possible Cloudy Overcast Partly cloudy Overcast Cloudy Cloudy Partly cloudy
81°F
27°C
77°F
25°C
74°F
23°C
68°F
20°C
65°F
18°C
64°F
18°C
62°F
17°C
62°F
17°C
61°F
16°C
62°F
17°C
63°F
17°C
65°F
19°C
66°F
19°C
67°F
20°C
69°F
21°C
71°F
22°C
73°F
23°C
73°F
23°C
72°F
22°C
69°F
21°C
69°F
21°C
72°F
22°C
76°F
24°C
76°F
25°C
75°F
24°C
75°F
24°C
74°F
23°C
72°F
22°C
68°F
20°C
64°F
18°C
66°F
19°C
68°F
20°C
66°F
19°C
62°F
16°C
61°F
16°C
60°F
16°C
60°F
15°C
59°F
15°C
59°F
15°C
59°F
15°C
59°F
15°C
59°F
15°C
58°F
15°C
60°F
15°C
63°F
17°C
61°F
16°C
61°F
16°C
62°F
17°C
43°F
6°C
49°F
9°C
52°F
11°C
50°F
10°C
49°F
10°C
49°F
10°C
49°F
9°C
49°F
10°C
50°F
10°C
52°F
11°C
55°F
13°C
58°F
14°C
62°F
17°C
65°F
19°C
68°F
20°C
70°F
21°C
71°F
22°C
72°F
22°C
71°F
21°C
68°F
20°C
68°F
20°C
69°F
21°C
64°F
18°C
63°F
17°C
64°F
18°C
63°F
17°C
61°F
16°C
56°F
13°C
51°F
11°C
51°F
10°C
51°F
11°C
52°F
11°C
51°F
11°C
52°F
11°C
42°F
6°C
42°F
6°C
44°F
7°C
47°F
8°C
48°F
9°C
46°F
8°C
43°F
6°C
44°F
6°C
44°F
7°C
45°F
7°C
45°F
7°C
45°F
7°C
45°F
7°C
46°F
8°C
29.8 in
1009 mb
29.8 in
1009 mb
29.8 in
1009 mb
29.8 in
1009 mb
29.83 in
1010 mb
29.83 in
1010 mb
29.83 in
1010 mb
29.83 in
1010 mb
29.83 in
1010 mb
29.8 in
1009 mb
29.77 in
1008 mb
29.77 in
1008 mb
29.74 in
1007 mb
29.71 in
1006 mb
29.65 in
1004 mb
29.65 in
1004 mb
29.65 in
1004 mb
29.62 in
1003 mb
29.65 in
1004 mb
29.68 in
1005 mb
29.65 in
1004 mb
29.65 in
1004 mb
29.62 in
1003 mb
29.59 in
1002 mb
29.59 in
1002 mb
29.59 in
1002 mb
29.59 in
1002 mb
29.59 in
1002 mb
29.62 in
1003 mb
29.59 in
1002 mb
29.59 in
1002 mb
29.59 in
1002 mb
29.59 in
1002 mb
29.62 in
1003 mb
29.62 in
1003 mb
29.62 in
1003 mb
29.62 in
1003 mb
29.62 in
1003 mb
29.62 in
1003 mb
29.62 in
1003 mb
29.65 in
1004 mb
29.65 in
1004 mb
29.68 in
1005 mb
29.68 in
1005 mb
29.68 in
1005 mb
29.68 in
1005 mb
29.65 in
1004 mb
29.65 in
1004 mb
26%37%45%53%57%60%61%63%66%70%74%75%89%94%97%97%94%94%95%96%97%91%67%64%68%67%64%57%54%61%59%56%59%71%50%52%57%65%67%60%56%57%58%59%52%55%56%55%
ENEESEESESESESESESESESESESESESESSESSESSESWSWWSWSWWSWWSWWSWWSWWSWWSWWSWWSWSWSSWWSWWWWSWWSWSWWSWWWWWWWWWW
2 mph
3 km/h
1 mph
2 km/h
3 mph
5 km/h
4 mph
6 km/h
4 mph
6 km/h
4 mph
6 km/h
4 mph
6 km/h
4 mph
7 km/h
4 mph
7 km/h
5 mph
8 km/h
5 mph
8 km/h
5 mph
9 km/h
8 mph
13 km/h
8 mph
13 km/h
11 mph
17 km/h
11 mph
17 km/h
12 mph
19 km/h
12 mph
19 km/h
16 mph
26 km/h
10 mph
15 km/h
7 mph
11 km/h
8 mph
13 km/h
10 mph
16 km/h
11 mph
18 km/h
11 mph
18 km/h
14 mph
22 km/h
12 mph
19 km/h
11 mph
18 km/h
10 mph
17 km/h
4 mph
7 km/h
4 mph
7 km/h
10 mph
16 km/h
14 mph
22 km/h
14 mph
23 km/h
11 mph
17 km/h
9 mph
14 km/h
7 mph
11 km/h
6 mph
10 km/h
7 mph
11 km/h
8 mph
13 km/h
9 mph
14 km/h
9 mph
14 km/h
8 mph
13 km/h
7 mph
11 km/h
10 mph
16 km/h
9 mph
14 km/h
8 mph
13 km/h
8 mph
13 km/h
0%0%0%0%0%0%0%0%0%0%0%0%91%91%90%90%90%89%89%63%62%61%72%84%56%77%84%81%69%0%0%0%0%86%70%0%0%0%0%0%67%0%0%0%0%0%0%0%
6 mi
10 km
6 mi
10 km
6 mi
10 km
6 mi
10 km
6 mi
10 km
6 mi
10 km
6 mi
10 km
6 mi
10 km
6 mi
10 km
6 mi
10 km
6 mi
10 km
6 mi
10 km
3 mi
5 km
6 mi
10 km
6 mi
10 km
6 mi
10 km
4 mi
7 km
4 mi
7 km
3 mi
5 km
3 mi
5 km
4 mi
7 km
4 mi
7 km
4 mi
6 km
6 mi
10 km
6 mi
10 km
6 mi
9 km
6 mi
10 km
6 mi
10 km
6 mi
9 km
6 mi
10 km
6 mi
10 km
6 mi
10 km
6 mi
10 km
6 mi
10 km
6 mi
9 km
6 mi
10 km
6 mi
10 km
6 mi
10 km
6 mi
10 km
6 mi
10 km
6 mi
10 km
6 mi
10 km
6 mi
10 km
6 mi
10 km
6 mi
10 km
6 mi
10 km
6 mi
10 km
6 mi
10 km

Day/Time
Weather
Condition
Temperature
Dew Point
Pressure
Humidity
Wind Direction
Wind Speed
Prob Precip %
Visibility
Prob Precip % = Probability of Precipitation.